Torna al catalogo

DELTA 1 DEB

AttivoSSO
NORAD 7022·DEBRIS·🇺🇸 United States

Lanciato Nov 6, 1973 da Vandenberg Space Force Base

Loading…

Prossimi Passaggi (prossime 24 ore)

TLE

AggiornatoSource: Space-Track

Epoca: Sep 14, 2026, 04:23 UTC

1 07022U 73086N   26257.18289212 -.00000033  00000-0  89747-4 0  9996
2 07022 102.3206 339.7177 0186319  77.5139 311.6251 12.44405393399740

Traccia DELTA 1 DEB in tempo reale con AllMySat

Download on the App Store